Location: Laupheim
(48.2265°N, 9.8829°E)
Time: 08:27:17
(UTC+01:00)

ISS - Pass Details

Date: 10 January 2018
Orbit: 402 x 406 km, 51.6° (Epoch: 16 January)

Event Time Altitude Azimuth Distance (km) Brightness Sun altitude
Exits shadow 06:32:38 37° 296° (WNW) 652 -3.3 -15.4°
Maximum altitude 06:33:48 85° 19° (NNE) 412 -3.9 -15.2°
Drops below altitude 10° 06:37:06 10° 111° (ESE) 1,463 0.4 -14.7°
Sets 06:39:10 0° 112° (ESE) 2,322 2.0 -14.4°
